When you browse on this site, cookies collect data to enhance your experience and personalize the content and advertising you see.
Visit our Privacy Policy to learn more. By continuing to use the site, you agree to this use of cookies and data.
  • In Hungary
  • List of Countries
  • For 7 days
  • Water Temperature
  • Satellite Maps
  • Weather Map
  • News
  • Weather Widgets
  • user-avatar
    Login

    Hourly Weather Strzakly

    Today, 16 January, Wednesday

    Time Temperature Precipitation Wind Pressure Humidity
    00:00 -3°C° 1.2 mm 4 mps 735 mmHg 95%
    01:00 -2°C° 1.2 mm 4 mps 734 mmHg 95%
    02:00 -2°C° 0 mm 4 mps 733 mmHg 96%
    03:00 -3°C° 0.3 mm 6 mps 734 mmHg 94%
    04:00 -2°C° 0.3 mm 8 mps 734 mmHg 92%
    05:00 -1°C° 0.3 mm 9 mps 735 mmHg 90%
    06:00 -2°C° 0 mm 8 mps 736 mmHg 89%
    07:00 -3°C° 0 mm 7 mps 737 mmHg 88%
    08:00 -2°C° 0 mm 5 mps 738 mmHg 88%
    09:00 -2°C° 0 mm 4 mps 739 mmHg 89%
    10:00 -3°C° 0 mm 4 mps 740 mmHg 90%
    11:00 -2°C° 0 mm 3 mps 740 mmHg 91%
    12:00 -1°C° 0 mm 3 mps 740 mmHg 93%
    13:00 -1°C° 0 mm 2 mps 741 mmHg 95%
    14:00 +1°C° 0 mm 2 mps 741 mmHg 97%
    15:00 0°C° 0.1 mm 3 mps 741 mmHg 97%
    16:00 0°C° 0.1 mm 3 mps 741 mmHg 97%
    17:00 0°C° 0.1 mm 3 mps 741 mmHg 97%
    18:00 0°C° 0.1 mm 3 mps 741 mmHg 97%
    19:00 -1°C° 0.1 mm 4 mps 741 mmHg 98%
    20:00 0°C° 0.1 mm 4 mps 741 mmHg 98%
    21:00 0°C° 0 mm 5 mps 741 mmHg 97%
    22:00 0°C° 0 mm 5 mps 741 mmHg 96%
    23:00 -1°C° 0 mm 5 mps 741 mmHg 95%

    Tomorrow, 17 January, Thursday

    Time Temperature Precipitation Wind Pressure Humidity
    00:00 -1°C° 0 mm 5 mps 741 mmHg 94%
    01:00 -1°C° 0 mm 5 mps 740 mmHg 94%
    02:00 -1°C° 0 mm 5 mps 740 mmHg 93%
    03:00 -1°C° 0 mm 5 mps 740 mmHg 92%
    04:00 -2°C° 0 mm 6 mps 739 mmHg 91%
    05:00 -3°C° 0 mm 6 mps 739 mmHg 90%
    06:00 -2°C° 0 mm 6 mps 738 mmHg 88%
    07:00 -2°C° 0 mm 7 mps 738 mmHg 86%
    08:00 -2°C° 0 mm 7 mps 737 mmHg 83%
    09:00 -2°C° 0 mm 7 mps 737 mmHg 82%
    10:00 -1°C° 0 mm 7 mps 737 mmHg 80%
    11:00 -1°C° 0 mm 8 mps 737 mmHg 78%
    12:00 -1°C° 0 mm 7 mps 737 mmHg 80%
    13:00 -1°C° 0 mm 7 mps 737 mmHg 83%
    14:00 0°C° 0 mm 7 mps 737 mmHg 85%
    15:00 0°C° 0 mm 7 mps 737 mmHg 86%
    16:00 -1°C° 0 mm 7 mps 737 mmHg 87%
    17:00 -1°C° 0 mm 6 mps 738 mmHg 88%
    18:00 -1°C° 0 mm 6 mps 738 mmHg 88%
    19:00 -1°C° 0 mm 7 mps 738 mmHg 87%
    20:00 -1°C° 0 mm 7 mps 738 mmHg 87%
    21:00 -1°C° 0 mm 7 mps 738 mmHg 87%
    22:00 -1°C° 0 mm 7 mps 738 mmHg 87%
    23:00 -1°C° 0 mm 7 mps 737 mmHg 87%

    Day after tomorrow, 18 January, Friday

    Time Temperature Precipitation Wind Pressure Humidity
    00:00 -1°C° 0 mm 7 mps 738 mmHg 87%
    01:00 -1°C° 0 mm 7 mps 738 mmHg 86%
    02:00 -1°C° 0 mm 7 mps 738 mmHg 86%
    03:00 -1°C° 0 mm 7 mps 738 mmHg 84%
    04:00 -2°C° 0 mm 7 mps 738 mmHg 82%
    05:00 -2°C° 0 mm 7 mps 738 mmHg 80%
    06:00 -3°C° 0 mm 7 mps 738 mmHg 80%
    07:00 -3°C° 0 mm 7 mps 739 mmHg 79%
    08:00 -4°C° 0 mm 7 mps 739 mmHg 79%
    09:00 -4°C° 0 mm 8 mps 739 mmHg 78%
    10:00 -4°C° 0 mm 8 mps 739 mmHg 76%
    11:00 -4°C° 0 mm 9 mps 740 mmHg 75%
    12:00 -4°C° 0.2 mm 9 mps 741 mmHg 78%
    13:00 -4°C° 0.2 mm 8 mps 742 mmHg 80%
    14:00 -2°C° 0.2 mm 8 mps 743 mmHg 83%
    15:00 -3°C° 0.1 mm 7 mps 744 mmHg 80%
    16:00 -3°C° 0.1 mm 7 mps 745 mmHg 78%
    17:00 -4°C° 0.1 mm 6 mps 746 mmHg 75%
    18:00 -4°C° 0 mm 6 mps 747 mmHg 76%
    19:00 -5°C° 0 mm 5 mps 747 mmHg 77%
    20:00 -5°C° 0 mm 5 mps 748 mmHg 78%
    21:00 -4°C° 0 mm 4 mps 749 mmHg 79%
    22:00 -4°C° 0 mm 4 mps 749 mmHg 80%
    23:00 -5°C° 0 mm 4 mps 750 mmHg 80%

    19 January, Saturday

    Time Temperature Precipitation Wind Pressure Humidity
    00:00 -5°C° 0 mm 4 mps 750 mmHg 82%
    01:00 -5°C° 0 mm 3 mps 751 mmHg 83%
    02:00 -5°C° 0 mm 3 mps 751 mmHg 85%
    03:00 -5°C° 0 mm 3 mps 751 mmHg 86%
    04:00 -5°C° 0 mm 3 mps 751 mmHg 87%
    05:00 -6°C° 0 mm 3 mps 751 mmHg 89%
    06:00 -5°C° 0 mm 3 mps 751 mmHg 89%
    07:00 -5°C° 0 mm 3 mps 751 mmHg 89%
    08:00 -5°C° 0 mm 3 mps 751 mmHg 89%
    09:00 -5°C° 0 mm 4 mps 751 mmHg 88%
    10:00 -4°C° 0 mm 4 mps 751 mmHg 86%
    11:00 -4°C° 0 mm 4 mps 752 mmHg 84%
    12:00 -4°C° 0 mm 4 mps 751 mmHg 83%
    13:00 -3°C° 0 mm 4 mps 751 mmHg 82%
    14:00 -3°C° 0 mm 4 mps 751 mmHg 80%
    15:00 -2°C° 0 mm 3 mps 751 mmHg 82%
    16:00 -4°C° 0 mm 3 mps 751 mmHg 84%
    17:00 -3°C° 0 mm 2 mps 751 mmHg 85%
    18:00 -3°C° 0 mm 2 mps 751 mmHg 86%
    19:00 -3°C° 0 mm 2 mps 751 mmHg 86%
    20:00 -4°C° 0 mm 2 mps 751 mmHg 87%
    21:00 -4°C° 0 mm 2 mps 751 mmHg 87%
    22:00 -4°C° 0 mm 2 mps 751 mmHg 87%
    23:00 -4°C° 0 mm 2 mps 751 mmHg 87%

    20 January, Sunday

    Time Temperature Precipitation Wind Pressure Humidity
    00:00 -4°C° 0 mm 2 mps 751 mmHg 87%
    01:00 -4°C° 0 mm 2 mps 751 mmHg 87%
    02:00 -4°C° 0 mm 2 mps 751 mmHg 88%
    03:00 -4°C° 0 mm 2 mps 750 mmHg 88%
    04:00 -4°C° 0 mm 2 mps 750 mmHg 88%
    05:00 -4°C° 0 mm 2 mps 750 mmHg 89%
    06:00 -4°C° 0 mm 2 mps 750 mmHg 89%
    07:00 -4°C° 0 mm 2 mps 750 mmHg 89%
    08:00 -4°C° 0 mm 2 mps 750 mmHg 89%
    09:00 -3°C° 0 mm 2 mps 750 mmHg 88%
    10:00 -3°C° 0 mm 2 mps 750 mmHg 88%
    11:00 -4°C° 0 mm 3 mps 750 mmHg 87%
    12:00 -2°C° 0 mm 3 mps 750 mmHg 86%
    13:00 -2°C° 0 mm 3 mps 750 mmHg 85%
    14:00 -3°C° 0 mm 4 mps 749 mmHg 84%
    15:00 -3°C° 0 mm 4 mps 749 mmHg 85%
    16:00 -4°C° 0 mm 4 mps 749 mmHg 86%
    17:00 -4°C° 0 mm 3 mps 749 mmHg 88%
    18:00 -4°C° 0 mm 3 mps 749 mmHg 89%
    19:00 -4°C° 0 mm 4 mps 750 mmHg 90%
    20:00 -4°C° 0 mm 4 mps 750 mmHg 91%
    21:00 -4°C° 0 mm 4 mps 750 mmHg 90%
    22:00 -5°C° 0 mm 4 mps 751 mmHg 89%
    23:00 -5°C° 0 mm 4 mps 751 mmHg 88%

    21 January, Monday

    Time Temperature Precipitation Wind Pressure Humidity
    00:00 -7°C° 0 mm 4 mps 752 mmHg 87%
    01:00 -7°C° 0 mm 4 mps 752 mmHg 87%
    02:00 -7°C° 0 mm 4 mps 753 mmHg 86%
    03:00 -7°C° 0 mm 4 mps 753 mmHg 87%
    04:00 -7°C° 0 mm 3 mps 753 mmHg 88%
    05:00 -7°C° 0 mm 3 mps 754 mmHg 88%
    06:00 -7°C° 0 mm 3 mps 754 mmHg 89%
    07:00 -8°C° 0 mm 4 mps 755 mmHg 89%
    08:00 -8°C° 0 mm 4 mps 755 mmHg 89%
    09:00 -7°C° 0 mm 4 mps 755 mmHg 88%
    10:00 -7°C° 0 mm 4 mps 756 mmHg 87%
    11:00 -5°C° 0 mm 4 mps 756 mmHg 86%
    12:00 -5°C° 0 mm 4 mps 756 mmHg 85%
    13:00 -5°C° 0 mm 4 mps 757 mmHg 84%
    14:00 -4°C° 0 mm 4 mps 757 mmHg 83%
    15:00 -5°C° 0 mm 3 mps 757 mmHg 85%
    16:00 -5°C° 0 mm 3 mps 757 mmHg 86%
    17:00 -4°C° 0 mm 2 mps 757 mmHg 88%
    18:00 -4°C° 0 mm 2 mps 758 mmHg 89%
    19:00 -5°C° 0 mm 2 mps 758 mmHg 89%
    20:00 -5°C° 0 mm 2 mps 758 mmHg 89%
    21:00 -5°C° 0 mm 2 mps 758 mmHg 89%
    22:00 -5°C° 0 mm 2 mps 758 mmHg 89%
    23:00 -5°C° 0 mm 2 mps 758 mmHg 89%
    Show more